Location: Bergfeld
(52.0500°N, 11.7833°E)
Time: 15:37:42
(UTC+00:00)

PSLV R/B - Pass Details

Date: 17 February 2020
Orbit: 505 x 579 km, 97.8° (Epoch: 28 March)

Event Time Altitude Azimuth Distance (km) Brightness Sun altitude
Rises 05:21:17 0° 7° (N) 2,623 7.3 -10.4°
Reaches altitude 10° 05:23:30 10° 357° (N) 1,736 6.3 -10.1°
Maximum altitude 05:26:51 32° 293° (WNW) 891 4.4 -9.6°
Drops below altitude 10° 05:30:13 10° 229° (SW) 1,743 6.0 -9.1°
Sets 05:32:27 0° 220° (SW) 2,636 7.0 -8.7°
